Regional Weather Roundup
Issued by NWS

Home | Current Version | Previous Version | Graphics & Text | Print | Product List | Glossary Off
Versions: 1 2 3 4 5 6 7 8 9 10 11 12 13 14 15 16 17 18 19 20 21 22 23 24 25 26 27 28 29 30 31 32 33 34 35 36 37 38 39 40 41 42 43 44 45 46 47 48 49 50

000
ASUS43 KMPX 261610
RWRMN
WEATHER ROUNDUP FOR MINNESOTA
NATIONAL WEATHER SERVICE TWIN CITIES/CHANHASSEN MN
1000 AM CST THU FEB 26 2015


NOTE: "FAIR" INDICATES FEW OR NO CLOUDS BELOW 12,000 FEET WITH NO
SIGNIFICANT WEATHER AND/OR OBSTRUCTIONS TO VISIBILITY. N/A MEANS
CURRENT SKY AND/OR WEATHER CONDITIONS ARE NOT AVAILABLE.

MNZ060>063-068>070-261700-
   Twin Cities Metro

CITY           SKY/WX    TMP DP  RH WIND       PRES   REMARKS
TWIN CITIES    SUNNY      2 -10  57 N8        30.45S WCI -12
ST PAUL        SUNNY      3 -10  54 NW9       30.47S WCI -12
CRYSTAL        SUNNY      2 -10  57 NW8       30.45S WCI -12
BLAINE         SUNNY      1  -9  60 N5        30.44R WCI  -8
LAKEVILLE      SUNNY      0  -9  65 N6        30.43R WCI -12
EDEN PRAIRIE   SUNNY      2 -10  57 N8        30.44R WCI -12
SOUTH ST PAUL  SUNNY      2 -10  56 N6        30.45S WCI  -9
LAKE ELMO      FAIR       3  -8  60 N7        30.44S WCI  -9
$$
MNZ001>005-007-008-013>017-022>024-027-028-261700-
   Northwest Minnesota

CITY           SKY/WX    TMP DP  RH WIND       PRES   REMARKS
BEMIDJI        SUNNY    -12 -19  70 NW6       30.44S WCI -25
HALLOCK        SUNNY     -9 -18  64 NW3       30.55S
ROSEAU         SUNNY     -9 -17  70 W5        30.49S WCI -21
WARROAD        SUNNY     -8 -17  65 NW6       30.47S WCI -21
THIEF RVR FALL SUNNY     -9 -27  41 NW3       30.51R
CROOKSTON      SUNNY     -6 -11  77 N10       30.57S WCI -23
FOSSTON        SUNNY     -9 -17  70 NW6       30.49S WCI -23
DETROIT LAKES  SUNNY     -6 -13  71 N15       30.48R WCI -27
MOORHEAD       SUNNY     -4  -9  77 N14       30.56R WCI -24
PARK RAPIDS    SUNNY     -8 -16  67 NW12      30.42R WCI -27
MAHNOMEN       FAIR     -11 -17  77 N8        30.50R WCI -28
$$
MNZ006-009>011-018-025>026-261700-
   North Central Minnesota

CITY           SKY/WX    TMP DP  RH WIND       PRES   REMARKS
BAUDETTE       SUNNY    -12 -21  64 NW8       30.45R WCI -29
FLAG ISLAND    SUNNY    -13 -18  77 NW6       30.45F WCI -27
INTL FALLS     SUNNY     -8 -18  61 NW14      30.42R WCI -29
WASKISH        SUNNY    -11 -18  70 W7        30.46R WCI -26
BIG FORK       SUNNY     -6 -17  59 CALM      30.41R
LONGVILLE      SUNNY     -9 -18  64 W8        30.43R WCI -26
GRAND RAPIDS   SUNNY     -9 -17  70 NW7       30.39R WCI -24
CRANE LAKE     SUNNY     -9 -17  70 NW5       30.42S WCI -21
ORR            SUNNY     -9 -18  64 CALM      30.36R
COOK           SUNNY     -8 -17  65 CALM      30.39R
WALKER         FAIR     -10 -18  67 W6        30.44R WCI -23
$$
MNZ012-019>021-037-261700-
   Northeast Minnesota

CITY           SKY/WX    TMP DP  RH WIND       PRES   REMARKS
DULUTH         SUNNY     -2 -14  56 NW7       30.35R WCI -15
ELY            SUNNY     -6 -15  65 W5        30.34R WCI -17
HIBBING        SUNNY     -6 -16  61 NW5       30.38R WCI -17
EVELETH        SUNNY     -6 -15  65 W6        30.38R WCI -18
DULUTH HARBOR  SUNNY      0 -11  60 CALM      30.46R
TWO HARBORS    SUNNY      3 -11  51 NW6       30.36R WCI  -8
SILVER BAY     SUNNY      3 -13  47 CALM      30.35R
GRAND MARAIS     N/A      3 -13  47 NW5       30.41R WCI  -6
G MARAIS ARPRT SUNNY     -4 -18  50 NW7       30.24R WCI -18
$$
MNZ029>031-032-039>041-046>048-054>057-064-261700-
   West Central Minnesota

CITY           SKY/WX    TMP DP  RH WIND       PRES   REMARKS
FERGUS FALLS   SUNNY     -6 -17  59 N18G28    30.55S WCI -29
WHEATON        SUNNY     -6 -13  71 NW13      30.56S WCI -25
MORRIS         SUNNY     -2 -11  65 NW13      30.50R WCI -21
ALEXANDRIA     SUNNY     -5 -14  65 NW13      30.45R WCI -24
ELBOW LAKE     FAIR      -6 -14  67 N14       30.49S WCI -26
WADENA         SUNNY     -8 -17  65 N10       30.44R WCI -26
GLENWOOD       SUNNY     -2 -11  65 NW12      30.46R WCI -20
APPLETON       SUNNY      0  -9  65 NW14      30.53S WCI -19
BENSON         SUNNY     -2 -11  65 N10       30.50R WCI -19
ORTONVILLE     SUNNY     -4 -11  71 NW8       30.53R WCI -19
MADISON        SUNNY     -2 -11  65 NW10      30.54R WCI -19
WILLMAR        FAIR      -2 -11  65 NW10      30.48S WCI -19
$$
MNZ033>034-036-042>043-049>051-058-059-261700-
   Central Minnesota

CITY           SKY/WX    TMP DP  RH WIND       PRES   REMARKS
ST CLOUD       SUNNY     -3 -13  62 NW10      30.46R WCI -20
SAUK CENTRE    FAIR      -4 -14  62 N12       30.45S WCI -22
PAYNESVILLE    SUNNY     -5 -13  67 W8        30.47R WCI -20
AITKIN         SUNNY     -2 -15  55 CALM      30.41S
PINE RIVER     SUNNY     -8 -15  71 NW8       30.45R WCI -23
BRAINERD       SUNNY     -5 -15  62 NW3       30.43S
STAPLES        SUNNY     -8 -17  65 NW7       30.43S WCI -22
LONG PRAIRIE   FAIR      -4 -13  65 NW12      30.44S WCI -22
LITTLE FALLS   SUNNY     -2 -15  55 NW5       30.46S WCI -12
LITCHFIELD     SUNNY     -2  -9  71 CALM      30.46R
BUFFALO        SUNNY      0  -9  65 N7        30.47R WCI -13
MAPLE LAKE     SUNNY      0  -9  65 NW7       30.46S WCI -13
$$
MNZ037-044-045-052-053-261700-
   East Central Minnesota

CITY           SKY/WX    TMP DP  RH WIND       PRES   REMARKS
PRINCETON      SUNNY      0 -11  60 NW7       30.44S WCI -13
MORA           SUNNY      0 -13  55 NW6       30.45S WCI -12
CAMBRIDGE      SUNNY      0 -11  60 NW5       30.43S WCI -10
RUSH CITY      SUNNY     -1 -12  60 NW5       30.45R WCI -11
MOOSE LAKE     SUNNY     -2 -15  55 CALM      30.41R
HINCKLEY       FAIR       1 -11  55 N3        30.43S
CLOQUET        SUNNY     -4 -15  59 NW3       30.38R
MCGREGOR       SUNNY     -4 -13  65 CALM      30.42S
$$
MNZ071>073-080-081-089-090-097-098-261700-
   Southwest Minnesota

CITY           SKY/WX    TMP DP  RH WIND       PRES   REMARKS
MONTEVIDEO     SUNNY      0  -9  65 N12       30.53R WCI -18
GRANITE FALLS  SUNNY     -3 -12  65 NW10G16   30.53S WCI -20
CANBY          SUNNY     -3 -10  70 N13       30.53S WCI -22
MARSHALL       SUNNY     -4 -11  71 N15       30.50S WCI -25
REDWOOD FALLS  SUNNY     -2 -12  62 NW14      30.49R WCI -21
OLIVIA         SUNNY     -4  -9  77 NW13      30.48S WCI -23
PIPESTONE      SUNNY     -6 -11  77 N13G20    30.42S WCI -25
WINDOM         PTSUNNY   -4 -11  71 NW17      30.43S WCI -26
WORTHINGTON    SUNNY     23 -15  18 N18       30.43S WCI   9
JACKSON        CLOUDY    -2  -9  71 N12G18    30.42S WCI -20
TRACY          SUNNY     -3 -10  72 NW14      30.47S WCI -22
SLAYTON        MOSUNNY   -4 -12  68 N15       30.43S WCI -25
$$
MNZ065>067-074>077-082>085-091>093-261700-
   South Central Minnesota

CITY           SKY/WX    TMP DP  RH WIND       PRES   REMARKS
MANKATO        SUNNY     -2 -11  65 NW10      30.45R WCI -19
NEW ULM        SUNNY     -4 -13  65 NW15      30.46S WCI -25
ST JAMES       SUNNY     -2  -9  71 NW15      30.47R WCI -22
FAIRMONT       SUNNY     -2  -9  71 NW14      30.42S WCI -21
GLENCOE        SUNNY     -1  -8  69 NW9       30.46R WCI -16
FARIBAULT      SUNNY      1  -9  60 NW7       30.43R WCI -11
OWATONNA       SUNNY     -2  -9  71 NW7       30.41S WCI -16
WASECA         SUNNY     -2  -9  71 NW13      30.43S WCI -21
ALBERT LEA     SUNNY     -2  -9  71 NW10      30.39S WCI -19
$$
MNZ078>079-086>088-094>096-261700-
   Southeast Minnesota

CITY           SKY/WX    TMP DP  RH WIND       PRES   REMARKS
ROCHESTER      SUNNY     -1 -10  65 NW13      30.36R WCI -19
RED WING       SUNNY      3 -11  51 N5        30.43S WCI  -6
STANTON        SUNNY      2  -9  58 N9        30.43R WCI -12
DODGE CENTER   SUNNY     -2  -9  71 NW10      30.36S WCI -19
WINONA         SUNNY      5  -6  61 NW7       30.43R WCI  -7
AUSTIN         SUNNY      0 -11  60 NW15      30.38R WCI -20
PRESTON        SUNNY     -1 -11  62 N10       30.35R WCI -17
$$
ABBREVIATIONS USED IN REMARKS
   TC - TEMPERATURES IN CELSIUS
  WCI - WIND CHILL INDEX
   HX - HEAT INDEX
  VSB - VISIBILITY
$$



USA.gov is the U.S. government's official web portal to all federal, state and local government web resources and services.